Flag for U.S.A. Weather past 2 weeks in Greeley, Colorado, U.S.A.

Now
81 °F

Partly sunny.


Feels Like: 80 °F
Forecast: 58 / 83 °F
Wind: 5 mph from Southeast

Location: Greeley / Weld

Current Time: Sep 3, 2015 at 3:56:04 PM

Latest Report: Sep 3, 2015 at 3:35 PM


Visibility: 10 mi

Pressure: 29.95 "Hg (25.47 "Hg at 1424m altitude)

Humidity: 30%

Dew point: 46 °F

Location of GreeleyLocation

Historic Weather in Greeley — Graph

°F

Greeley temperature yesterday

Maximum temperature yesterday: 93 °F (at 3:35 PM)
Minimum temperature yesterday: 54 °F (at 5:55 AM)
Average temperature yesterday: 72 °F

Past Weeks' High & Low Weather Summary

 TemperatureHumidityPressure
High99 °F (Aug 30, 4:15 PM)94% (Aug 20, 2:35 AM)30.36 "Hg (Aug 20, 2:35 AM)
Low45 °F (Aug 23, 3:15 AM)11% (Aug 30, 4:15 PM)29.80 "Hg (Aug 21, 6:15 PM)
Average69 °F51%30.09 "Hg
* Reported Aug 19 2:15 PM — Sep 3 2:35 PM, Greeley, Weather by CustomWeather, © 2015

Note: Actual official high and low records may vary slightly from our data, if they occured in-between our weather recording intervals... More about our weather records

Advertising

Greeley weather history for previous 24 hours

 ConditionsComfort  
Time TempWeatherWind HumidityBarometerVisibility
2:35 PM
Thu, Sep 3
84 °FSunny.9 mph27%29.95 "Hg10 mi
2:15 PM84 °FPassing clouds.14 mph29%29.96 "Hg10 mi
1:55 PM84 °FSunny.10 mph29%29.97 "Hg10 mi
1:35 PM82 °FSunny.14 mph35%29.98 "Hg10 mi
1:15 PM79 °FSunny.10 mph42%29.99 "Hg10 mi
12:55 PM81 °FPassing clouds.12 mph37%30.00 "Hg10 mi
12:35 PM79 °FScattered clouds.9 mph39%30.01 "Hg10 mi
12:15 PM75 °FPartly sunny.8 mph44%30.01 "Hg10 mi
11:55 AM77 °FPartly sunny.10 mph42%30.01 "Hg10 mi
11:35 AM77 °FPassing clouds.8 mph36%30.01 "Hg10 mi
11:15 AM75 °FSunny.3 mph41%30.01 "Hg10 mi
10:55 AM73 °FSunny.No wind47%30.02 "Hg10 mi
10:35 AM72 °FPassing clouds.7 mph47%30.00 "Hg10 mi
10:15 AM72 °FScattered clouds.No wind47%30.02 "Hg10 mi
9:55 AM72 °FSunny.8 mph47%30.03 "Hg10 mi
9:35 AM70 °FSunny.3 mph50%30.02 "Hg10 mi
9:15 AM66 °FPassing clouds.6 mph56%30.00 "Hg10 mi
8:55 AM66 °FScattered clouds.No wind60%30.02 "Hg10 mi
8:35 AM66 °FScattered clouds.8 mph60%30.03 "Hg10 mi
8:15 AM66 °FSunny.3 mph56%30.01 "Hg10 mi
7:55 AM64 °FSunny.3 mph56%30.01 "Hg10 mi
7:35 AM61 °FSunny.5 mph63%30.00 "Hg10 mi
7:15 AM59 °FClear.No wind72%30.00 "Hg10 mi
6:55 AM57 °FClear.No wind72%30.00 "Hg10 mi
6:35 AM57 °FClear.No wind72%30.00 "Hg10 mi
6:15 AM55 °FClear.5 mph77%29.99 "Hg10 mi
5:55 AM59 °FPassing clouds.5 mph68%30.00 "Hg10 mi
5:35 AM59 °FPassing clouds.3 mph63%30.00 "Hg10 mi
5:15 AM59 °FPassing clouds.No wind68%29.99 "Hg10 mi
4:55 AM61 °FClear.No wind59%29.99 "Hg10 mi
4:35 AM57 °FClear.No wind67%29.99 "Hg10 mi
4:15 AM57 °FClear.5 mph67%29.98 "Hg10 mi
3:55 AM57 °FClear.5 mph67%29.98 "Hg10 mi
3:35 AM57 °FClear.7 mph67%29.98 "Hg10 mi
3:15 AM57 °FClear.5 mph67%29.98 "Hg10 mi
2:55 AM57 °FClear.9 mph67%29.97 "Hg10 mi
2:35 AM57 °FClear.8 mph72%29.98 "Hg10 mi
2:15 AM57 °FClear.8 mph72%29.98 "Hg10 mi
1:55 AM57 °FClear.7 mph72%29.98 "Hg10 mi
1:35 AM57 °FClear.5 mph77%29.99 "Hg10 mi
1:15 AM57 °FClear.6 mph77%29.99 "Hg10 mi
12:55 AM59 °FClear.5 mph77%29.99 "Hg10 mi
12:35 AM61 °FClear.No wind72%29.99 "Hg10 mi
12:15 AM61 °FClear.No wind72%29.99 "Hg10 mi
11:55 PM
Wed, Sep 2
61 °FClear.3 mph72%29.99 "Hg10 mi
11:35 PM61 °FClear.7 mph72%29.99 "Hg10 mi
11:15 PM61 °FClear.N/A72%30.00 "Hg10 mi
10:55 PM64 °FClear.5 mph64%29.99 "Hg10 mi
10:35 PM66 °FPassing clouds.No wind56%30.00 "Hg10 mi
9:35 PM66 °FClear.3 mph60%30.00 "Hg10 mi
9:15 PM68 °FClear.5 mph60%29.99 "Hg10 mi
8:55 PM70 °FClear.8 mph53%29.99 "Hg10 mi
8:35 PM70 °FClear.No wind50%29.98 "Hg10 mi
8:15 PM73 °FSunny.No wind44%29.97 "Hg10 mi
7:55 PM75 °FSunny.No wind41%29.97 "Hg10 mi
7:35 PM77 °FSunny.No wind39%29.96 "Hg10 mi
7:15 PM81 °FSunny.No wind30%29.96 "Hg10 mi
6:55 PM82 °FSunny.No wind26%29.96 "Hg10 mi
6:35 PM88 °FSunny.5 mph21%29.96 "Hg10 mi
6:15 PM90 °FSunny.No wind16%29.96 "HgN/A
5:55 PM91 °FSunny.No wind14%29.96 "HgN/A
5:35 PM91 °FSunny.3 mph16%29.96 "HgN/A
5:15 PM91 °FSunny.3 mph16%29.96 "HgN/A
4:55 PM93 °FSunny.6 mph15%29.96 "HgN/A
3:35 PM93 °FSunny.No wind15%29.98 "HgN/A
Weather by CustomWeather, © 2015

See weather overviewHow to use our weather pages